This is the latest recevied weather packets stored in our database for station/object IZ5MJO-13. If no packets are shown the sender has not sent any weather packets the latest 10 day(s).
| Time | Temp. | Humidity | Pressure | Rain* | Wind** | Luminosity | Snow |
|---|---|---|---|---|---|---|---|
| 1788082505 | 26.67° C | 39% | 1005.9 hPa | - | - | - | - |
| 1788081605 | 26.11° C | 38% | 1006.1 hPa | - | - | - | - |
| 1788080705 | 25.56° C | 41% | 1006.1 hPa | - | - | - | - |
| 1788079804 | 25.56° C | 42% | 1006.1 hPa | - | - | - | - |
| 1788078904 | 25° C | 45% | 1006.1 hPa | - | - | - | - |
| 1788078004 | 24.44° C | 46% | 1006.1 hPa | - | - | - | - |
| 1788077104 | 24.44° C | 46% | 1006 hPa | - | - | - | - |
| 1788076204 | 23.89° C | 47% | 1006 hPa | - | - | - | - |
| 1788075304 | 23.33° C | 48% | 1005.9 hPa | - | - | - | - |
| 1788074403 | 22.78° C | 48% | 1005.7 hPa | - | - | - | - |
| 1788073503 | 22.78° C | 49% | 1005.6 hPa | - | - | - | - |
| 1788072603 | 22.78° C | 49% | 1005.6 hPa | - | - | - | - |
| 1788071703 | 22.78° C | 51% | 1005.6 hPa | - | - | - | - |
| 1788070811 | 22.22° C | 49% | 1005.6 hPa | - | - | - | - |
| 1788070035 | 21.67° C | 51% | 1005.7 hPa | - | - | - | - |
| 1788069902 | 21.67° C | 51% | 1005.7 hPa | - | - | - | - |
| 1788069005 | 20.56° C | 51% | 1005.6 hPa | - | - | - | - |
| 1788068105 | 20.56° C | 50% | 1005.6 hPa | - | - | - | - |
| 1788067205 | 20.56° C | 53% | 1005.4 hPa | - | - | - | - |
| 1788066304 | 20° C | 53% | 1005.3 hPa | - | - | - | - |
| 1788065404 | 20° C | 52% | 1005.2 hPa | - | - | - | - |
| 1788064504 | 20° C | 52% | 1005.2 hPa | - | - | - | - |
| 1788063604 | 20.56° C | 51% | 1005.2 hPa | - | - | - | - |
| 1788062704 | 20.56° C | 52% | 1005.1 hPa | - | - | - | - |
| 1788061803 | 20.56° C | 51% | 1005.1 hPa | - | - | - | - |
* Rain since midnight (hover to see other rain measurements)
** Current wind speed in m/s (hover to see current wind gust speed)